Lapse_Rate
2.7 2.4 2.3 2.0 1.8 1.3 1.2 0.9 0.6 0.4 0.2 0.3 0.0 -0.3 -0.5 -1.0 -0.4 6.2 8.3 3.8 3.8 2.7 2.4 7.1 9.2 9.0 9.0 8.2 8.4 8.2 6.5 6.5 6.5 6.5 6.5 7.0 6.6 7.5 7.9 7.3 7.6 7.9 7.8 8.2 8.7
2.7 2.7 2.6 2.2 1.9 1.4 1.0 1.0 0.7 0.6 0.4 0.2 -0.0 -0.2 -0.4 -1.1 3.9 8.6 2.6 3.2 3.7 3.2 7.4 8.7 8.2 8.4 7.7 7.6 7.7 6.8 6.5 6.5 6.5 6.5 6.5 6.8 6.8 7.0 7.0 7.0 7.0 7.4 8.1 8.5 8.7
2.9 2.8 2.5 2.6 2.2 1.6 1.2 0.8 0.7 0.7 0.7 0.6 0.1 -0.2 -0.4 -0.5 7.3 7.8 2.2 4.1 3.8 3.9 8.8 9.3 8.9 8.2 7.2 7.6 7.2 6.8 6.5 6.5 6.7 7.1 7.2 6.8 6.8 7.4 6.8 6.5 7.0 7.0 7.6 8.1 8.2
3.3 2.9 2.5 2.5 2.4 1.9 1.4 0.9 0.9 0.9 0.6 0.4 0.4 0.2 -0.2 3.5 6.5 6.6 3.8 4.2 4.5 5.5 8.9 8.8 8.3 7.3 6.7 6.5 7.3 6.5 6.8 6.9 7.0 7.2 7.1 6.6 7.3 6.8 7.0 7.0 7.9 8.0 8.0 8.0 8.0
3.3 3.0 2.8 2.6 2.6 2.2 1.5 1.1 0.7 0.9 0.7 0.4 0.6 0.6 2.9 8.0 7.9 5.6 4.7 5.0 6.4 9.6 8.8 8.3 7.7 7.3 6.5 6.7 6.9 6.5 6.5 7.1 7.3 7.2 7.2 7.3 6.8 6.7 7.0 7.8 8.1 8.2 8.1 7.9 7.9
3.3 3.2 2.8 2.7 2.8 2.6 2.2 1.4 0.9 0.9 0.8 0.6 1.0 0.6 6.3 6.9 9.3 8.2 8.3 8.8 9.5 9.2 8.7 8.6 7.9 8.0 7.2 6.8 6.6 7.0 6.9 6.9 7.2 7.1 7.2 6.7 6.7 6.9 7.2 7.8 7.7 7.8 7.8 8.0 8.0
3.6 2.9 2.3 2.1 2.6 2.6 2.2 1.8 1.2 1.0 0.9 0.9 1.2 4.0 8.1 7.8 9.8 9.7 9.3 9.5 9.6 9.3 8.4 8.8 8.8 7.9 7.6 6.5 7.4 7.1 6.5 6.5 6.7 6.9 6.6 7.1 6.5 6.5 7.3 7.7 7.4 7.5 7.8 7.9 8.1
3.7 3.0 2.3 2.4 2.8 2.8 2.2 2.1 1.3 1.1 1.3 1.3 1.5 5.3 7.6 9.5 9.2 9.7 9.8 9.4 9.7 9.6 9.2 9.2 9.1 8.2 7.5 7.7 6.9 6.5 6.5 6.5 6.5 6.6 6.8 6.7 6.5 6.5 7.5 7.3 7.1 7.4 7.5 7.7 7.9
3.7 3.1 2.8 2.7 2.4 2.5 2.8 2.5 2.0 1.6 2.0 1.8 4.2 6.1 7.3 7.3 8.6 9.5 9.7 8.8 9.1 9.2 9.2 9.3 8.7 7.5 7.4 6.5 6.5 6.5 6.5 6.5 6.5 6.6 6.5 6.5 6.5 6.5 7.4 7.2 7.0 7.2 7.5 7.8 8.2
4.4 4.0 3.0 2.7 2.5 2.2 2.4 3.7 3.5 2.0 3.3 6.1 8.6 7.8 8.3 7.8 8.9 9.2 9.7 9.2 8.5 8.3 8.0 7.8 7.4 6.5 6.5 6.5 6.5 6.5 6.5 6.5 6.5 6.5 6.5 6.5 6.5 6.5 7.1 7.0 7.0 7.3 7.5 7.7 8.0
4.3 4.2 3.4 2.9 2.1 2.1 2.4 5.0 5.1 7.0 8.0 7.7 7.7 7.6 8.0 8.9 9.3 8.8 9.3 8.7 8.4 7.7 6.5 7.0 6.5 6.5 6.5 6.5 6.5 6.5 6.5 6.5 6.5 6.5 6.5 6.5 6.5 6.5 6.8 7.0 6.9 7.2 7.4 7.6 7.9
5.0 4.2 3.4 3.0 2.3 2.0 3.5 6.5 7.3 7.9 6.9 8.4 8.4 8.4 8.7 8.9 7.6 8.3 9.2 7.5 7.1 6.5 6.7 6.5 6.5 6.5 6.5 6.5 6.5 6.5 6.5 6.5 6.5 6.5 6.5 6.5 6.5 6.5 6.5 6.8 7.1 7.2 7.4 7.5 8.1
5.3 5.2 5.1 3.4 2.8 3.7 4.4 6.6 5.8 6.7 6.5 7.2 8.1 8.1 8.2 8.5 7.4 7.6 8.4 7.8 6.7 6.5 6.5 6.5 6.5 6.5 6.5 6.5 6.5 6.5 6.5 6.5 6.5 6.5 6.5 6.5 6.5 6.5 6.5 6.9 7.3 7.5 7.7 7.9 7.9
5.1 5.9 5.0 3.8 3.1 5.2 4.8 7.2 5.7 6.5 6.5 6.5 6.9 7.7 8.4 8.3 6.9 8.6 8.6 7.7 6.7 6.5 6.5 6.5 6.6 6.5 6.5 6.5 6.5 6.5 6.5 6.5 6.5 6.5 6.5 6.5 6.5 6.5 6.5 6.5 6.5 7.1 7.4 7.7 8.0
5.0 6.5 4.8 4.9 6.3 6.4 8.5 6.3 6.9 7.0 6.5 6.5 6.8 8.9 8.3 7.2 7.3 7.4 8.8 7.7 6.5 6.5 6.5 6.5 6.5 6.5 6.5 6.5 6.5 6.5 6.5 6.5 6.5 6.5 6.5 6.5 6.5 6.5 6.5 6.5 6.5 6.8 7.3 7.6 8.0
4.9 6.3 4.4 5.6 6.6 7.5 7.9 6.0 6.5 6.5 6.5 6.5 6.8 6.6 6.5 7.0 7.0 7.6 7.5 8.1 7.7 6.5 6.5 6.5 7.0 6.5 6.5 6.5 6.5 6.5 6.5 6.5 6.5 6.5 6.5 6.5 6.5 6.5 6.5 6.5 6.5 6.9 7.3 7.7 7.9
4.8 6.1 4.7 6.4 5.9 7.9 6.9 7.1 6.5 6.5 6.5 6.5 6.5 6.5 6.5 6.5 6.5 6.5 6.5 6.5 6.5 6.5 6.5 6.5 6.5 6.5 6.7 6.5 6.5 6.5 6.5 6.5 6.5 6.5 6.5 6.5 6.5 6.5 6.5 6.5 6.6 6.7 7.2 7.7 8.1
4.7 6.5 5.8 7.4 6.5 7.2 6.7 6.5 6.5 6.5 6.5 6.5 6.5 6.5 6.5 6.5 6.5 6.5 6.5 6.5 6.5 6.5 6.5 6.5 6.5 6.5 6.5 6.5 6.5 6.5 6.5 6.5 6.5 6.5 6.5 6.5 6.5 6.5 6.5 7.0 7.2 7.4 7.4 7.7 7.8
6.5 5.0 6.0 5.6 5.8 7.4 7.1 6.5 6.5 6.5 6.5 6.5 6.5 6.5 6.5 6.5 6.5 6.5 6.5 6.5 6.5 6.5 6.5 6.5 6.5 6.5 6.5 6.5 6.5 6.5 6.5 6.5 6.5 6.5 6.5 6.5 6.5 6.5 6.5 6.5 6.9 7.1 7.4 7.3 7.8
5.7 6.1 6.2 6.6 7.5 7.0 6.5 6.5 6.5 6.6 6.5 6.5 6.5 6.5 6.5 6.5 6.5 6.5 6.5 6.5 6.5 6.5 6.6 6.5 6.5 6.5 6.5 6.6 6.6 6.5 6.5 6.5 6.5 6.5 6.5 6.5 6.5 6.5 6.5 6.5 6.5 6.5 6.9 7.1 7.5
6.2 6.3 5.9 7.8 7.1 6.9 6.5 6.5 6.5 7.2 7.0 6.5 6.5 6.5 6.5 6.5 6.5 6.5 6.5 6.5 6.5 6.5 6.6 6.5 6.5 6.5 6.5 6.5 6.5 6.5 6.5 6.5 6.5 6.5 6.5 6.5 6.5 6.5 6.5 6.5 6.5 6.7 6.8 7.2 6.9
6.2 6.5 6.2 7.0 6.5 6.6 6.5 6.5 6.5 6.6 7.2 6.5 6.5 6.5 6.5 6.5 6.5 6.5 6.5 6.5 6.9 6.7 6.5 6.5 6.5 6.5 6.5 6.5 6.5 6.5 6.5 6.5 6.5 6.5 6.5 6.5 6.5 6.5 6.5 6.7 6.8 6.9 6.9 6.9 7.4
6.3 6.6 6.3 7.6 6.5 6.5 6.5 6.5 6.6 6.5 6.5 6.5 6.5 6.5 6.5 6.5 6.5 6.5 6.5 6.7 6.9 6.5 6.5 6.5 6.5 6.5 6.5 6.5 6.5 6.5 6.5 6.5 6.5 6.5 6.5 6.5 6.5 6.5 6.7 6.7 7.1 6.6 7.2 7.3 7.6
5.9 6.5 6.5 6.5 6.9 6.5 6.5 6.5 6.5 7.0 6.5 6.8 6.5 6.6 6.5 6.5 6.5 6.5 6.5 6.5 7.0 6.8 5.8 6.3 6.5 6.5 6.5 6.5 6.5 6.5 6.5 6.5 6.5 6.5 6.5 6.5 6.5 6.5 6.5 6.5 6.4 6.9 6.9 7.2 7.4
6.8 6.7 7.2 6.5 6.5 6.5 6.5 6.5 6.5 6.5 6.7 6.8 6.5 6.5 6.5 6.5 6.5 6.5 6.5 6.5 6.7 6.0 6.7 6.5 6.5 6.5 6.5 6.5 6.5 6.5 6.5 6.5 6.5 6.5 6.5 6.5 6.5 6.5 6.5 6.5 4.9 4.4 6.5 7.0 7.2
6.4 6.8 7.5 6.9 7.0 6.5 6.5 6.5 6.5 6.5 6.5 6.5 6.5 6.5 6.5 6.5 6.5 6.5 6.5 6.5 6.5 6.5 6.5 6.5 6.5 6.5 6.5 6.5 6.5 6.5 6.5 6.5 6.5 6.5 6.5 6.5 6.5 6.5 6.9 7.1 7.1 7.2 6.7 6.9 7.2
6.5 8.6 7.5 6.7 6.5 6.5 6.5 6.5 6.5 6.5 6.7 6.8 6.6 6.5 6.5 6.5 6.9 7.0 7.1 7.0 6.6 6.5 6.5 6.5 6.5 6.5 6.5 6.5 6.5 6.5 6.5 6.5 6.5 6.5 6.5 6.5 6.5 6.6 6.5 6.7 7.0 7.3 7.5 7.5 7.7
Wind_Speed
10 9 8 7 7 6 7 8 10 12 13 16 17 18 20 21 24 9 4 4 7 16 18 14 13 11 9 11 14 7 9 11 15 16 12 15 17 8 9 11 9 6 11 12 14
12 11 10 9 8 7 6 8 10 12 14 16 18 20 20 20 9 13 2 4 9 13 11 11 11 9 9 12 8 8 9 14 14 13 12 16 13 14 15 16 16 15 11 11 11
14 13 11 11 10 8 8 7 9 11 14 17 18 20 23 20 10 4 2 2 8 12 14 9 10 12 13 13 14 13 14 16 17 16 12 12 16 15 17 16 15 16 16 14 14
15 14 13 12 11 10 9 7 10 12 12 15 20 22 26 7 4 7 5 2 8 12 14 7 8 11 12 14 15 14 12 14 18 12 12 14 15 17 17 18 16 15 13 13 12
18 17 14 13 12 11 10 9 8 12 13 14 17 20 12 6 5 10 8 7 10 6 5 8 9 8 10 10 12 14 14 15 16 11 13 15 16 18 20 17 13 11 8 10 10
20 19 16 14 13 12 11 10 8 11 13 14 15 21 8 10 7 11 5 4 4 7 3 6 6 8 9 11 10 14 14 15 17 18 15 16 13 12 18 10 7 8 9 10 10
23 22 19 17 15 13 11 11 10 10 12 14 12 7 10 11 2 7 4 3 1 5 7 1 7 7 11 9 6 9 14 17 19 19 7 6 13 11 3 5 5 11 12 12 13
24 23 23 20 15 12 9 11 11 12 15 14 11 7 6 1 5 5 8 6 4 4 6 5 7 11 11 9 7 10 13 12 2 6 4 2 11 9 15 14 16 16 11 11 13
26 25 24 20 16 10 7 10 15 13 16 10 7 6 8 5 9 10 7 8 3 4 5 6 8 10 8 10 11 13 9 9 8 6 7 9 8 10 14 14 15 10 20 20 21
21 25 26 22 17 11 4 11 10 7 6 8 9 6 10 7 9 6 7 4 6 5 7 9 7 8 8 8 9 10 9 13 14 13 14 14 14 12 14 10 19 18 17 18 19
15 24 25 24 19 13 4 6 3 6 9 9 6 9 1 4 9 9 9 9 7 7 11 14 7 11 13 4 8 8 12 15 14 13 11 12 14 14 13 17 16 16 18 19 19
16 20 26 26 22 18 3 3 5 4 7 20 21 13 9 9 9 12 12 8 11 12 17 8 15 9 4 4 6 9 13 15 13 11 10 15 16 5 17 15 16 18 19 21 22
19 20 24 26 23 9 7 5 12 9 2 9 16 17 13 9 14 14 14 14 12 13 13 14 10 3 5 9 10 12 11 12 13 14 15 17 14 19 15 15 17 19 19 19 20
20 21 28 28 11 7 7 9 8 4 2 8 14 10 21 13 12 18 16 14 11 12 13 10 2 5 6 10 10 11 7 6 12 11 11 13 6 14 13 16 19 20 19 21 23
23 23 37 36 9 9 7 19 10 2 4 3 14 5 20 17 4 14 13 10 13 15 4 5 7 6 7 10 2 7 8 10 14 14 15 17 9 7 12 17 19 20 21 22 21
27 28 40 14 6 8 24 19 2 4 9 6 11 14 21 19 14 15 13 11 8 13 11 15 5 4 10 2 7 10 11 15 16 13 9 16 11 12 9 16 16 17 19 21 20
32 35 36 18 8 26 22 8 3 6 9 9 14 17 22 20 19 14 17 16 10 8 14 15 14 7 5 7 9 7 11 6 3 6 8 8 7 8 13 14 14 16 18 18 18
36 37 32 14 32 32 11 2 6 15 22 3 15 19 19 19 21 17 17 16 21 12 7 12 7 14 11 4 5 4 6 5 5 6 11 19 5 6 11 13 15 16 16 17 19
37 15 13 10 37 16 10 5 9 11 16 9 13 20 20 21 10 17 18 17 13 13 7 8 5 12 7 3 3 3 5 7 7 14 11 6 9 9 14 15 15 17 18 16 18
14 14 10 32 31 14 6 13 12 13 10 18 20 19 21 22 14 11 15 13 8 6 3 2 6 10 10 3 9 8 5 4 4 4 8 2 8 4 15 16 17 15 15 16 15
13 9 8 26 14 10 6 12 12 17 14 19 22 19 23 22 16 12 12 6 11 9 6 5 4 8 6 7 8 9 5 4 6 6 6 7 4 3 9 11 13 13 11 13 13
5 5 11 18 9 5 10 13 14 18 17 16 16 10 13 17 18 16 14 7 9 11 6 4 5 6 11 6 3 3 2 2 2 7 7 4 3 4 8 9 11 12 12 11 12
4 7 5 14 8 11 9 12 10 19 18 16 13 20 18 13 14 13 13 8 10 10 5 7 5 5 4 6 7 4 4 3 6 7 10 6 4 5 7 9 10 9 10 11 15
5 5 4 4 3 18 15 18 11 14 18 25 17 15 10 13 10 14 14 9 9 7 6 2 3 3 2 3 4 4 4 3 4 5 6 1 3 5 5 6 7 7 8 10 13
1 6 8 12 7 16 16 15 24 24 15 15 14 18 14 12 12 13 17 13 10 5 5 2 3 6 6 4 9 2 5 5 2 2 3 2 4 6 2 4 2 1 6 10 12
2 5 11 18 14 19 13 17 19 15 14 15 9 13 12 10 8 15 16 13 8 8 8 5 2 2 6 10 10 5 7 4 5 3 2 1 6 7 5 4 9 12 10 11 12
3 4 7 15 18 13 14 21 21 16 9 15 15 11 9 9 3 12 13 12 7 13 10 7 4 4 9 13 7 3 2 1 8 5 4 1 4 6 6 5 9 12 13 14 14
Wind_Direction
231 239 247 260 270 284 307 317 323 324 327 327 329 327 326 328 315 263 291 17 335 327 318 279 264 260 259 258 265 281 263 261 263 272 340 342 353 11 349 301 314 302 289 310 332
220 231 247 256 263 271 286 303 315 320 324 324 326 325 321 326 287 273 122 33 335 318 320 337 319 333 290 258 250 227 259 259 287 336 336 324 331 330 325 309 304 301 311 327 330
221 224 230 253 259 266 275 288 303 313 320 323 326 325 320 322 266 90 168 46 298 299 273 298 288 283 275 269 265 249 255 275 305 321 331 306 303 308 307 299 299 316 319 317 319
219 218 222 238 253 257 266 283 298 307 316 325 326 325 317 285 326 116 148 236 276 279 280 290 281 268 275 279 288 246 273 288 295 314 301 298 303 293 287 281 295 303 313 315 312
213 214 214 230 246 249 255 271 290 303 312 324 325 327 324 239 276 143 157 220 261 289 307 315 289 309 275 312 324 292 284 278 286 292 280 283 282 285 282 284 285 285 299 298 295
210 214 212 211 233 247 260 265 281 297 308 315 322 326 271 271 101 145 187 217 277 277 300 318 332 324 286 279 277 295 298 287 279 277 272 269 290 290 272 291 350 323 288 291 310
207 204 206 214 220 231 247 269 286 294 299 302 313 309 283 259 212 165 180 241 309 304 302 290 307 286 327 276 336 298 283 284 272 249 238 347 272 249 44 172 315 305 303 303 306
211 204 203 207 206 227 237 270 285 290 285 282 292 292 256 105 294 220 209 194 232 265 274 301 284 279 263 295 291 265 262 275 216 139 195 277 294 298 342 324 313 305 306 307 344
213 204 200 196 202 209 251 280 286 288 277 258 253 218 267 105 221 226 225 242 189 259 258 302 267 262 272 251 285 235 253 253 216 226 152 197 276 314 323 301 292 349 34 19 7
231 206 192 190 183 177 231 282 294 295 234 209 255 263 226 218 192 182 213 255 242 241 268 234 236 247 244 242 258 336 282 307 296 302 307 307 309 313 300 329 42 33 22 15 5
259 212 190 177 169 159 149 282 262 227 217 228 188 234 83 170 131 202 201 211 233 242 253 219 254 255 267 13 346 314 294 288 289 296 326 295 299 304 61 58 42 26 15 7 358
258 214 188 174 162 152 199 235 37 355 305 237 259 263 258 161 202 213 180 217 210 237 228 240 247 256 350 316 307 283 279 278 286 307 314 306 300 36 83 67 47 27 13 2 354
260 209 182 162 142 151 179 143 26 5 322 285 221 233 207 208 231 206 185 216 246 239 246 245 281 90 285 279 264 262 272 291 307 313 293 283 284 125 115 61 38 27 16 6 356
254 211 169 142 122 172 188 227 62 43 43 264 214 234 211 206 236 235 183 226 226 247 258 253 230 261 247 262 272 275 301 322 291 296 291 323 281 291 56 36 24 16 8 4 359
240 222 164 157 149 169 178 142 148 126 270 188 195 225 174 185 181 194 175 207 245 217 210 240 202 223 248 255 303 267 323 287 284 283 282 271 256 78 53 23 15 9 6 3 358
234 207 170 180 149 172 137 119 93 97 233 219 159 188 177 203 186 154 183 238 257 251 216 248 150 257 236 241 246 280 285 272 251 246 266 266 240 46 24 23 12 8 11 1 355
232 200 175 166 166 136 140 128 134 180 154 210 180 194 189 194 202 176 200 197 199 199 223 219 223 196 239 244 227 233 277 300 211 202 238 134 286 60 41 39 24 18 13 360 356
218 193 183 175 144 153 142 145 213 204 220 221 177 190 195 196 208 198 205 211 216 253 256 194 177 188 171 203 346 314 312 292 304 309 314 317 113 90 51 40 36 19 18 -0 2
192 172 171 169 150 159 155 205 207 225 203 212 189 189 195 203 200 202 224 222 196 214 225 226 166 118 152 171 219 137 242 324 287 276 264 230 98 120 28 18 15 13 7 360 2
161 157 165 156 155 159 212 212 224 208 227 208 191 189 188 195 192 192 200 220 161 170 278 119 182 176 147 227 237 234 341 274 225 278 298 125 141 8 354 355 359 11 3 356 357
137 141 149 152 152 161 198 217 207 224 212 197 215 204 195 186 194 190 204 249 147 168 228 176 242 155 146 218 250 197 208 259 305 281 279 299 83 20 355 1 360 354 2 352 351
121 120 170 143 148 210 203 206 233 208 211 218 207 238 213 190 193 190 205 177 166 160 196 163 217 196 212 148 337 339 88 338 312 296 327 268 144 54 19 10 1 353 356 353 349
92 101 142 175 165 191 191 208 237 184 205 187 207 208 209 196 193 188 199 162 151 184 195 166 222 176 201 192 190 240 148 247 284 270 268 284 109 76 21 15 356 2 2 357 351
110 123 141 218 268 181 188 189 191 238 193 183 211 210 217 174 185 190 140 144 159 174 52 15 240 221 7 87 87 155 215 302 301 267 317 58 138 17 24 351 330 4 5 4 358
91 156 165 180 198 180 190 185 196 178 180 192 208 202 183 184 187 184 141 154 180 142 169 253 224 212 259 241 154 177 237 108 284 312 303 54 83 358 15 316 305 95 14 7 5
108 154 184 154 171 166 171 194 183 161 169 188 192 212 186 164 192 178 155 169 168 165 182 230 274 223 230 231 126 180 210 188 135 7 76 351 118 26 336 319 17 9 8 9 8
308 180 145 163 166 166 181 176 177 162 184 196 210 189 169 190 165 165 151 178 166 162 190 179 238 191 244 125 97 288 230 39 115 73 315 331 31 344 348 9 21 8 7 5 5